Time,TemperatureF,DewpointF,PressureIn,WindDirection,WindDirectionDegrees,WindSpeedMPH,WindSpeedGustMPH,Humidity,HourlyPrecipIn,Conditions,Clouds,dailyrainin,SoftwareType,DateUTC
2013-03-07 00:11:00,47.7,37.0,30.07,WNW,300,1.0,-999.0,67,-99.99,,,0.00,weatherlink.com 1.10,2013-03-07 05:11:00,
2013-03-07 00:26:00,47.8,37.0,30.07,WNW,292,0.0,-999.0,67,-99.99,,,0.00,weatherlink.com 1.10,2013-03-07 05:26:00,
2013-03-07 00:41:00,48.1,38.0,30.06,NNW,339,0.0,-999.0,68,-99.99,,,0.00,weatherlink.com 1.10,2013-03-07 05:41:00,
2013-03-07 00:56:00,47.9,38.0,30.06,NNW,333,0.0,-999.0,68,-99.99,,,0.00,weatherlink.com 1.10,2013-03-07 05:56:00,
2013-03-07 01:11:00,47.3,37.0,30.06,NW,309,0.0,-999.0,68,-99.99,,,0.00,weatherlink.com 1.10,2013-03-07 06:11:00,
2013-03-07 01:26:00,47.2,37.0,30.06,NNW,332,0.0,-999.0,68,-99.99,,,0.00,weatherlink.com 1.10,2013-03-07 06:26:00,
2013-03-07 01:42:00,47.0,37.0,30.05,NW,309,1.0,-999.0,68,-99.99,,,0.00,weatherlink.com 1.10,2013-03-07 06:42:00,
2013-03-07 01:57:00,47.0,36.0,30.05,NW,308,0.0,-999.0,67,-99.99,,,0.00,weatherlink.com 1.10,2013-03-07 06:57:00,
2013-03-07 02:12:00,47.2,36.0,30.05,NNW,345,0.0,-999.0,65,-99.99,,,0.00,weatherlink.com 1.10,2013-03-07 07:12:00,
2013-03-07 02:27:00,47.3,36.0,30.05,North,355,0.0,-999.0,66,-99.99,,,0.00,weatherlink.com 1.10,2013-03-07 07:27:00,
2013-03-07 02:42:00,47.0,36.0,30.04,NNW,340,0.0,-999.0,66,-99.99,,,0.00,weatherlink.com 1.10,2013-03-07 07:42:00,
2013-03-07 02:57:00,46.6,35.0,30.04,NW,304,0.0,-999.0,65,-99.99,,,0.00,weatherlink.com 1.10,2013-03-07 07:57:00,
2013-03-07 03:12:00,46.5,35.0,30.04,WNW,294,0.0,-999.0,65,-99.99,,,0.00,weatherlink.com 1.10,2013-03-07 08:12:00,
2013-03-07 03:27:00,46.5,35.0,30.04,WNW,297,2.0,-999.0,64,-99.99,,,0.00,weatherlink.com 1.10,2013-03-07 08:27:00,
2013-03-07 03:42:00,46.2,35.0,30.04,WNW,302,4.0,-999.0,64,-99.99,,,0.00,weatherlink.com 1.10,2013-03-07 08:42:00,
2013-03-07 03:57:00,45.7,35.0,30.04,NW,317,1.0,-999.0,66,-99.99,,,0.00,weatherlink.com 1.10,2013-03-07 08:57:00,
2013-03-07 04:12:00,45.2,34.0,30.04,WNW,300,0.0,-999.0,66,-99.99,,,0.00,weatherlink.com 1.10,2013-03-07 09:12:00,
2013-03-07 04:27:00,44.9,34.0,30.05,WNW,302,0.0,-999.0,67,-99.99,,,0.00,weatherlink.com 1.10,2013-03-07 09:27:00,
2013-03-07 04:42:00,44.7,35.0,30.05,NW,307,0.0,-999.0,68,-99.99,,,0.00,weatherlink.com 1.10,2013-03-07 09:42:00,
2013-03-07 04:57:00,44.5,34.0,30.05,NW,304,0.0,-999.0,68,-99.99,,,0.00,weatherlink.com 1.10,2013-03-07 09:57:00,
2013-03-07 05:12:00,44.4,35.0,30.06,NW,315,0.0,-999.0,69,-99.99,,,0.00,weatherlink.com 1.10,2013-03-07 10:12:00,
2013-03-07 05:27:00,44.3,35.0,30.07,NW,315,1.0,-999.0,69,-99.99,,,0.00,weatherlink.com 1.10,2013-03-07 10:27:00,
2013-03-07 05:42:00,44.2,35.0,30.07,NW,306,0.0,-999.0,69,-99.99,,,0.00,weatherlink.com 1.10,2013-03-07 10:42:00,
2013-03-07 05:57:00,44.1,34.0,30.07,NNW,331,0.0,-999.0,69,-99.99,,,0.00,weatherlink.com 1.10,2013-03-07 10:57:00,
2013-03-07 06:12:00,43.8,35.0,30.08,NW,310,0.0,-999.0,70,-99.99,,,0.00,weatherlink.com 1.10,2013-03-07 11:12:00,
2013-03-07 06:27:00,43.5,34.0,30.08,WNW,302,0.0,-999.0,70,-99.99,,,0.00,weatherlink.com 1.10,2013-03-07 11:27:00,
2013-03-07 06:42:00,43.2,35.0,30.08,WNW,302,0.0,-999.0,72,-99.99,,,0.00,weatherlink.com 1.10,2013-03-07 11:42:00,
2013-03-07 06:57:00,42.9,35.0,30.08,WNW,302,0.0,-999.0,73,-99.99,,,0.00,weatherlink.com 1.10,2013-03-07 11:57:00,
2013-03-07 07:27:00,44.1,36.0,30.09,WNW,299,0.0,-999.0,73,-99.99,,,0.00,weatherlink.com 1.10,2013-03-07 12:27:00,
2013-03-07 07:42:00,45.6,36.0,30.10,WNW,303,0.0,-999.0,69,-99.99,,,0.00,weatherlink.com 1.10,2013-03-07 12:42:00,
2013-03-07 07:57:00,47.0,37.0,30.10,WNW,302,0.0,-999.0,68,-99.99,,,0.00,weatherlink.com 1.10,2013-03-07 12:57:00,
2013-03-07 08:12:00,48.7,38.0,30.11,NW,306,0.0,-999.0,66,-99.99,,,0.00,weatherlink.com 1.10,2013-03-07 13:12:00,
2013-03-07 08:27:00,50.6,39.0,30.11,WNW,292,7.0,-999.0,65,-99.99,,,0.00,weatherlink.com 1.10,2013-03-07 13:27:00,
2013-03-07 08:42:00,52.4,41.0,30.11,NW,317,0.0,-999.0,65,-99.99,,,0.00,weatherlink.com 1.10,2013-03-07 13:42:00,
2013-03-07 08:57:00,53.9,41.0,30.12,NW,321,0.0,-999.0,63,-99.99,,,0.00,weatherlink.com 1.10,2013-03-07 13:57:00,
2013-03-07 09:12:00,55.5,42.0,30.12,WNW,288,4.0,-999.0,62,-99.99,,,0.00,weatherlink.com 1.10,2013-03-07 14:12:00,
2013-03-07 09:27:00,57.0,43.0,30.12,WNW,290,0.0,-999.0,61,-99.99,,,0.00,weatherlink.com 1.10,2013-03-07 14:27:00,
2013-03-07 09:42:00,59.2,46.0,30.13,NNW,348,0.0,-999.0,61,-99.99,,,0.00,weatherlink.com 1.10,2013-03-07 14:42:00,
2013-03-07 09:57:00,60.4,47.0,30.12,NNW,342,0.0,-999.0,61,-99.99,,,0.00,weatherlink.com 1.10,2013-03-07 14:57:00,
2013-03-07 10:12:00,60.4,48.0,30.12,NE,40,0.0,-999.0,63,-99.99,,,0.00,weatherlink.com 1.10,2013-03-07 15:12:00,
2013-03-07 10:27:00,62.1,50.0,30.12,North,355,0.0,-999.0,64,-99.99,,,0.00,weatherlink.com 1.10,2013-03-07 15:27:00,
2013-03-07 10:42:00,62.0,49.0,30.13,North,5,0.0,-999.0,62,-99.99,,,0.00,weatherlink.com 1.10,2013-03-07 15:42:00,
2013-03-07 11:13:00,63.3,49.0,30.14,NNW,344,2.0,-999.0,59,-99.99,,,0.00,weatherlink.com 1.10,2013-03-07 16:13:00,
2013-03-07 11:28:00,63.0,48.0,30.14,North,350,9.0,-999.0,59,-99.99,,,0.00,weatherlink.com 1.10,2013-03-07 16:28:00,
2013-03-07 11:43:00,63.4,50.0,30.14,North,9,10.0,-999.0,62,-99.99,,,0.00,weatherlink.com 1.10,2013-03-07 16:43:00,
2013-03-07 11:58:00,64.1,51.0,30.14,NNE,18,3.0,-999.0,63,-99.99,,,0.00,weatherlink.com 1.10,2013-03-07 16:58:00,
2013-03-07 12:13:00,64.4,51.0,30.13,North,360,13.0,-999.0,62,-99.99,,,0.00,weatherlink.com 1.10,2013-03-07 17:13:00,
2013-03-07 12:28:00,62.9,50.0,30.14,NE,37,0.0,-999.0,63,-99.99,,,0.00,weatherlink.com 1.10,2013-03-07 17:28:00,
2013-03-07 12:43:00,64.5,51.0,30.13,North,360,9.0,-999.0,63,-99.99,,,0.00,weatherlink.com 1.10,2013-03-07 17:43:00,
2013-03-07 12:58:00,64.6,52.0,30.13,North,5,2.0,-999.0,64,-99.99,,,0.00,weatherlink.com 1.10,2013-03-07 17:58:00,
2013-03-07 13:13:00,64.3,52.0,30.11,NE,41,13.0,-999.0,64,-99.99,,,0.00,weatherlink.com 1.10,2013-03-07 18:13:00,
2013-03-07 13:28:00,65.2,52.0,30.11,North,11,0.0,-999.0,62,-99.99,,,0.00,weatherlink.com 1.10,2013-03-07 18:28:00,
2013-03-07 13:43:00,65.0,52.0,30.09,NE,38,1.0,-999.0,63,-99.99,,,0.00,weatherlink.com 1.10,2013-03-07 18:43:00,
2013-03-07 13:58:00,65.3,53.0,30.09,North,360,7.0,-999.0,65,-99.99,,,0.00,weatherlink.com 1.10,2013-03-07 18:58:00,
2013-03-07 14:13:00,65.8,53.0,30.09,North,5,5.0,-999.0,63,-99.99,,,0.00,weatherlink.com 1.10,2013-03-07 19:13:00,
2013-03-07 14:28:00,64.9,53.0,30.10,North,11,12.0,-999.0,65,-99.99,,,0.00,weatherlink.com 1.10,2013-03-07 19:28:00,
2013-03-07 14:43:00,64.2,53.0,30.09,NNE,13,2.0,-999.0,66,-99.99,,,0.00,weatherlink.com 1.10,2013-03-07 19:43:00,
2013-03-07 14:58:00,65.9,53.0,30.09,ENE,59,12.0,-999.0,63,-99.99,,,0.00,weatherlink.com 1.10,2013-03-07 19:58:00,
2013-03-07 15:13:00,64.9,54.0,30.09,NE,44,12.0,-999.0,67,-99.99,,,0.00,weatherlink.com 1.10,2013-03-07 20:13:00,
2013-03-07 15:28:00,65.8,54.0,30.09,NE,39,5.0,-999.0,65,-99.99,,,0.00,weatherlink.com 1.10,2013-03-07 20:28:00,
2013-03-07 15:43:00,64.9,52.0,30.09,NE,48,7.0,-999.0,64,-99.99,,,0.00,weatherlink.com 1.10,2013-03-07 20:43:00,
2013-03-07 15:59:00,64.7,53.0,30.08,NNE,28,10.0,-999.0,65,-99.99,,,0.00,weatherlink.com 1.10,2013-03-07 20:59:00,
2013-03-07 16:13:00,64.5,52.0,30.08,NE,53,6.0,-999.0,64,-99.99,,,0.00,weatherlink.com 1.10,2013-03-07 21:13:00,
2013-03-07 16:28:00,63.6,52.0,30.08,NE,43,5.0,-999.0,65,-99.99,,,0.00,weatherlink.com 1.10,2013-03-07 21:28:00,
2013-03-07 16:43:00,63.2,51.0,30.08,NNE,25,0.0,-999.0,65,-99.99,,,0.00,weatherlink.com 1.10,2013-03-07 21:43:00,
2013-03-07 16:58:00,62.1,51.0,30.09,NE,40,0.0,-999.0,67,-99.99,,,0.00,weatherlink.com 1.10,2013-03-07 21:58:00,
2013-03-07 17:13:00,61.2,50.0,30.08,North,11,0.0,-999.0,68,-99.99,,,0.00,weatherlink.com 1.10,2013-03-07 22:13:00,
2013-03-07 17:28:00,60.4,51.0,30.09,NE,46,6.0,-999.0,72,-99.99,,,0.00,weatherlink.com 1.10,2013-03-07 22:28:00,
2013-03-07 17:43:00,59.7,51.0,30.09,NE,55,0.0,-999.0,73,-99.99,,,0.00,weatherlink.com 1.10,2013-03-07 22:43:00,
2013-03-07 17:58:00,59.0,50.0,30.10,NE,39,0.0,-999.0,73,-99.99,,,0.00,weatherlink.com 1.10,2013-03-07 22:58:00,
2013-03-07 18:13:00,58.4,51.0,30.10,NE,47,0.0,-999.0,76,-99.99,,,0.00,weatherlink.com 1.10,2013-03-07 23:13:00,
2013-03-07 18:28:00,57.6,51.0,30.09,NE,49,0.0,-999.0,78,-99.99,,,0.00,weatherlink.com 1.10,2013-03-07 23:28:00,
2013-03-07 18:43:00,57.3,51.0,30.10,NE,53,0.0,-999.0,79,-99.99,,,0.00,weatherlink.com 1.10,2013-03-07 23:43:00,
2013-03-07 18:59:00,57.4,51.0,30.10,NE,47,0.0,-999.0,79,-99.99,,,0.00,weatherlink.com 1.10,2013-03-07 23:59:00,
2013-03-07 19:13:00,57.1,51.0,30.11,NE,48,0.0,-999.0,80,-99.99,,,0.00,weatherlink.com 1.10,2013-03-08 00:13:00,
2013-03-07 19:28:00,56.7,51.0,30.11,NE,47,0.0,-999.0,80,-99.99,,,0.00,weatherlink.com 1.10,2013-03-08 00:28:00,
2013-03-07 19:43:00,56.6,51.0,30.11,NE,48,0.0,-999.0,81,-99.99,,,0.00,weatherlink.com 1.10,2013-03-08 00:43:00,
2013-03-07 19:58:00,56.4,51.0,30.11,NE,48,0.0,-999.0,81,-99.99,,,0.00,weatherlink.com 1.10,2013-03-08 00:58:00,
2013-03-07 20:13:00,56.1,50.0,30.12,NE,48,0.0,-999.0,81,-99.99,,,0.00,weatherlink.com 1.10,2013-03-08 01:13:00,
2013-03-07 20:28:00,54.9,50.0,30.13,NE,48,0.0,-999.0,83,-99.99,,,0.00,weatherlink.com 1.10,2013-03-08 01:28:00,
2013-03-07 20:43:00,53.4,49.0,30.13,NE,48,0.0,-999.0,86,-99.99,,,0.00,weatherlink.com 1.10,2013-03-08 01:43:00,
2013-03-07 20:58:00,52.2,49.0,30.13,NE,48,0.0,-999.0,88,-99.99,,,0.00,weatherlink.com 1.10,2013-03-08 01:58:00,
2013-03-07 21:28:00,50.5,47.0,30.14,NE,48,0.0,-999.0,89,-99.99,,,0.00,weatherlink.com 1.10,2013-03-08 02:28:00,
2013-03-07 21:43:00,50.0,48.0,30.14,NE,48,0.0,-999.0,91,-99.99,,,0.00,weatherlink.com 1.10,2013-03-08 02:43:00,
2013-03-07 21:58:00,49.9,47.0,30.14,NE,48,0.0,-999.0,91,-99.99,,,0.00,weatherlink.com 1.10,2013-03-08 02:58:00,
2013-03-07 22:13:00,49.4,47.0,30.14,NE,48,0.0,-999.0,92,-99.99,,,0.00,weatherlink.com 1.10,2013-03-08 03:13:00,
2013-03-07 22:28:00,48.9,47.0,30.14,NE,48,0.0,-999.0,92,-99.99,,,0.00,weatherlink.com 1.10,2013-03-08 03:28:00,
2013-03-07 22:43:00,48.5,47.0,30.14,NE,48,0.0,-999.0,93,-99.99,,,0.00,weatherlink.com 1.10,2013-03-08 03:43:00,
2013-03-07 22:58:00,47.8,46.0,30.14,NE,48,0.0,-999.0,93,-99.99,,,0.00,weatherlink.com 1.10,2013-03-08 03:58:00,
2013-03-07 23:13:00,47.6,46.0,30.14,NE,48,0.0,-999.0,93,-99.99,,,0.00,weatherlink.com 1.10,2013-03-08 04:13:00,
2013-03-07 23:28:00,47.2,45.0,30.14,NE,48,0.0,-999.0,93,-99.99,,,0.00,weatherlink.com 1.10,2013-03-08 04:28:00,
2013-03-07 23:43:00,47.0,45.0,30.14,NE,48,0.0,-999.0,94,-99.99,,,0.00,weatherlink.com 1.10,2013-03-08 04:43:00,
2013-03-07 23:58:00,47.5,46.0,30.14,NE,48,0.0,-999.0,93,-99.99,,,0.00,weatherlink.com 1.10,2013-03-08 04:58:00,